パンスターズ彗星

C/2017 K2 ( PanSTARRS )

English version
Home page
Updated on September 11, 2021

---------------------------------------------------------------------

・ プロフィール

発見日 2017年5月21日
発見光度 20.8等
発見者 Pan-STARRS 1 telescope (Haleakala)

・ 写真集

・ 軌道要素

Epoch 2022 Dec. 7.0 TT = JDT 2459920.5
T 2022 Dec. 19.67474 TT                                 Rudenko
q   1.7969481            (2000.0)            P               Q
z  -0.0004724      Peri.  236.19722     +0.01818511     +0.04923077
 +/-0.0000006      Node    88.23549     -0.18094741     +0.98245637
e   1.0008488      Incl.   87.56305     -0.98332463     -0.17987719
From 4605 observations 2013 May 12-2021 May 30, mean residual 0".9.

・ 星図

・ 光度変化

        m1 = 1.0 + 5 logΔ + 10.0 log r

---------------------------------------------------------------------

軌道要素はM.P.E.C. 2021-L04に掲載されたものです。
星図はステラナビゲータ Ver.10 (アストロアーツ) で作成したものです。
光度グラフはComet for Windowsで作成したものです。

---------------------------------------------------------------------

Copyright(C) Seiichi Yoshida (comet@aerith.net). All rights reserved.